Terug naar catalogus

STARLINK-35546

ActiefCommunicatieVLEO
NORAD 66240·PAYLOAD·🇺🇸 United States

Gelanceerd Oct 29, 2025 vanaf Cape Canaveral Space Force Station

Loading…

Volgende Passages (komende 24 uur)

TLE

VersSource: CelesTrak SupGP

Epoch: Sep 14, 2026, 14:32 UTC

1 66240C 25245G   26257.60604167  .00037846  00000+0  11182-2 0  2577
2 66240  53.1581 124.9698 0001333  88.7862 162.8757 15.34369894    10

Volg STARLINK-35546 in realtime met AllMySat

Download on the App Store